Location: Brantley
(31.5822°N, 86.2569°W)
Time: 22:05:28
(UTC+00:00)

A-11 Canister half - Pass Details

Date: 25 February 2026
Orbit: 1525 x 1683 km, 47.3° (Epoch: 10 March)

Event Time Altitude Azimuth Distance (km) Brightness Sun altitude
Rises 00:58:00 0° 306° (NW) 4,688 12.5 -17.5°
Reaches altitude 10° 01:01:21 10° 314° (NW) 3,696 11.7 -18.2°
Maximum altitude 01:09:59 41° 22° (NNE) 2,090 9.5 -20.0°
Enters shadow 01:14:10 28° 70° (ENE) 2,567 9.6 -20.9°
